Date,TemperatureHighF,TemperatureAvgF,TemperatureLowF,DewpointHighF,DewpointAvgF,DewpointLowF,HumidityHigh,HumidityAvg,HumidityLow,PressureMaxIn,PressureMinIn,WindSpeedMaxMPH,WindSpeedAvgMPH,GustSpeedMaxMPH,PrecipitationSumIn
2013-1-1,37,31,19,27,19,8,78,61,46,29.95,29.74,22,3,23,0.00
2013-1-2,30,20,10,17,10,4,84,65,51,30.12,29.91,18,2,21,0.00
2013-1-3,25,14,1,12,2,-5,80,60,29,30.17,30.01,12,1,12,0.00
2013-1-4,39,26,12,26,19,9,89,75,55,30.01,29.83,12,1,18,0.02
2013-1-5,42,32,21,26,22,17,87,68,44,30.27,29.86,16,2,20,0.01
2013-1-6,43,31,22,30,26,18,88,79,58,30.25,29.95,13,1,13,0.00
2013-1-7,41,29,20,31,22,17,89,76,47,30.41,29.98,10,1,11,0.00
2013-1-8,46,32,20,31,25,17,89,77,52,30.37,30.26,13,1,18,0.00
2013-1-9,44,35,22,36,28,19,90,79,58,30.41,30.00,16,1,16,0.00
2013-1-10,46,41,30,30,26,23,77,55,42,30.55,30.06,25,3,31,0.00
2013-1-11,39,32,24,34,28,21,89,82,68,30.55,30.23,7,0,7,0.09
2013-1-12,42,39,36,39,36,33,88,88,87,30.25,30.13,5,0,5,0.04
2013-1-13,52,46,38,49,42,35,89,88,87,30.17,29.99,8,0,11,0.00
2013-1-14,60,51,41,52,43,31,89,76,46,30.27,29.85,17,2,17,0.00
2013-1-15,42,37,31,31,27,25,86,69,55,30.33,30.22,6,0,6,0.00
2013-1-16,34,32,31,31,29,27,90,88,80,30.26,29.84,3,0,4,0.07
2013-1-17,42,34,28,34,27,15,89,76,54,30.11,29.84,13,1,15,0.26
2013-1-18,30,22,17,18,5,-2,70,49,31,30.47,30.06,18,2,22,0.00
2013-1-19,47,36,21,32,24,8,77,61,43,30.40,29.90,18,2,21,0.01
2013-1-20,53,41,29,33,27,11,77,58,35,29.94,29.55,22,4,22,0.00
2013-1-21,30,25,18,20,13,7,88,62,42,30.11,29.81,19,1,19,0.00
2013-1-22,24,20,12,20,8,-1,89,64,37,30.10,29.77,22,2,22,0.00
2013-1-23,16,11,7,2,-4,-10,70,50,33,30.16,30.07,21,3,23,0.00
2013-1-24,20,11,3,-3,-6,-9,61,45,29,30.26,30.08,28,4,28,0.00
2013-1-25,24,16,8,13,-3,-9,81,43,26,30.33,30.08,16,2,17,0.00
2013-1-26,25,17,7,13,4,-5,87,59,31,30.27,30.03,14,2,19,0.00
2013-1-27,30,20,11,7,3,0,71,51,28,30.49,30.26,15,2,17,0.00
2013-1-28,31,23,14,25,16,4,89,74,41,30.48,30.03,7,0,8,0.00
2013-1-29,34,30,25,31,27,23,89,88,83,30.21,30.04,4,0,5,0.13
2013-1-30,61,48,33,56,44,30,89,87,84,30.17,29.46,19,2,20,0.13
2013-1-31,61,48,31,57,37,17,88,68,42,29.60,28.97,30,6,35,0.59
2013-2-1,33,29,22,19,11,6,63,47,35,30.10,29.60,18,4,21,0.00
2013-2-2,30,24,15,15,10,5,74,54,41,30.27,30.06,12,2,14,0.00
2013-2-3,28,25,21,22,20,14,88,82,60,30.07,29.75,8,0,9,0.00
2013-2-4,30,23,16,20,13,8,89,66,41,29.97,29.74,21,3,25,0.00
2013-2-5,30,25,18,22,16,11,88,69,54,30.04,29.95,7,0,7,0.00
2013-2-6,39,30,24,26,20,6,89,67,42,30.31,29.94,17,2,17,0.03
2013-2-7,32,24,14,15,8,4,83,51,32,30.54,30.31,15,1,15,0.00
2013-2-8,33,27,18,30,22,14,89,83,63,30.51,29.63,17,3,19,0.00
2013-2-9,24,20,14,19,14,5,90,79,66,30.23,29.60,23,4,23,0.00
2013-2-10,42,21,1,16,7,-4,85,60,24,30.42,30.23,9,0,10,0.35
2013-2-11,37,28,11,34,24,7,89,86,77,30.38,29.63,5,0,5,0.22
2013-2-12,44,38,29,33,29,24,89,73,55,29.89,29.62,20,3,21,0.06
2013-2-13,43,32,23,27,24,20,89,74,52,29.88,29.71,9,1,10,0.00
2013-2-14,47,35,26,27,24,20,83,65,38,30.00,29.73,10,0,10,0.00
2013-2-15,51,38,25,35,30,21,89,76,52,30.01,29.90,10,1,13,0.00
2013-2-16,39,34,29,32,28,19,89,76,57,29.97,29.73,9,1,10,0.02
2013-2-17,30,22,18,21,11,1,87,64,42,29.73,29.41,27,5,29,0.00
2013-2-18,32,22,15,6,2,-1,58,43,25,30.18,29.71,27,5,28,0.00
2013-2-19,48,35,17,39,24,5,88,67,51,30.19,29.59,9,1,11,0.29
2013-2-20,39,32,26,36,21,11,89,63,43,29.80,29.55,26,4,26,0.00
2013-2-21,34,28,24,17,15,12,72,58,44,30.21,29.79,21,4,21,0.00
2013-2-22,41,31,19,25,21,15,87,68,45,30.41,30.21,14,1,15,0.00
2013-2-23,39,33,27,32,28,23,88,82,72,30.35,29.93,11,1,11,0.00
2013-2-24,36,34,32,33,31,29,89,89,88,29.93,29.71,10,1,11,0.46
2013-2-25,41,34,28,34,30,25,89,85,70,30.25,29.91,6,0,6,0.27
2013-2-26,45,35,27,36,29,24,89,79,60,30.35,30.17,11,1,12,0.00
2013-2-27,42,39,36,38,36,32,89,87,79,30.17,29.58,25,5,26,1.27
2013-2-28,46,38,33,39,34,30,89,86,74,29.65,29.54,5,0,5,0.01
2013-3-1,42,37,31,34,30,28,89,76,63,29.69,29.54,14,1,14,0.00
2013-3-2,45,37,32,31,28,26,85,71,56,29.69,29.63,12,1,12,0.00
2013-3-3,43,36,32,33,29,26,88,76,65,29.66,29.57,10,1,11,0.00
2013-3-4,40,34,30,28,25,22,79,68,55,29.77,29.59,22,4,22,0.00
2013-3-5,47,37,30,33,28,24,88,71,52,30.09,29.77,10,1,13,0.00
2013-3-6,40,37,32,35,32,29,89,85,74,30.12,30.06,23,5,23,0.16
2013-3-7,36,33,31,32,30,28,89,87,77,30.08,30.00,16,3,22,0.10
2013-3-8,38,33,30,32,29,25,89,85,73,30.17,29.96,11,2,13,0.06
2013-3-9,52,35,23,32,25,20,89,69,34,30.37,30.16,12,1,12,0.49
2013-3-10,45,33,20,34,28,18,89,80,61,30.43,30.32,6,1,11,0.00
2013-3-11,54,42,34,41,36,31,88,78,53,30.35,30.16,8,1,10,0.00
2013-3-12,56,49,42,50,45,38,88,86,80,30.17,29.73,11,1,18,0.49
2013-3-13,52,43,31,48,32,22,89,68,34,29.80,29.70,15,2,17,0.00
2013-3-14,36,31,23,27,17,8,84,58,41,29.86,29.73,23,3,25,0.00
2013-3-15,42,31,20,28,16,8,77,55,28,29.90,29.65,15,3,17,0.00
2013-3-16,40,34,29,28,17,10,77,51,30,29.90,29.69,12,2,13,0.00
2013-3-17,39,31,22,20,14,5,85,52,27,30.34,29.89,18,2,18,0.00
2013-3-18,40,29,18,26,11,4,87,49,27,30.48,30.25,10,1,10,0.00
2013-3-19,36,33,29,33,30,26,89,88,87,30.25,29.62,19,3,21,0.64
2013-3-20,41,31,23,26,22,18,89,71,44,29.83,29.71,16,2,19,0.62
2013-3-21,40,29,21,28,23,18,89,78,44,29.84,29.63,7,0,8,0.03
2013-3-22,42,33,25,25,21,16,89,61,38,29.77,29.63,18,2,20,0.00
2013-3-23,44,36,27,25,21,18,79,57,39,29.81,29.66,25,4,25,0.00
2013-3-24,50,39,30,29,25,21,81,58,39,29.84,29.74,12,2,13,0.00
2013-3-25,43,37,30,34,30,26,88,78,69,29.78,29.53,15,2,15,0.00
2013-3-26,52,41,33,31,27,22,78,60,33,29.79,29.55,15,1,15,0.00
2013-3-27,53,42,28,32,26,22,86,56,35,29.88,29.75,15,2,17,0.00
2013-3-28,50,42,36,37,34,31,87,73,50,30.04,29.88,11,1,13,0.00
2013-3-29,59,45,31,37,32,28,89,64,33,30.06,29.97,14,1,16,0.00
2013-3-30,59,46,33,34,27,17,86,51,21,30.12,30.01,15,1,17,0.00
2013-3-31,61,45,28,41,30,24,89,61,25,30.14,29.75,15,1,16,0.02
2013-4-1,63,47,35,48,37,14,88,69,37,29.81,29.51,23,4,23,0.11
2013-4-2,41,35,28,22,16,12,72,47,32,29.96,29.81,25,4,29,0.00
2013-4-3,46,37,30,22,16,11,67,43,27,30.18,29.94,20,5,25,0.00
2013-4-4,57,42,27,29,20,13,73,44,20,30.32,30.06,11,2,14,0.00
2013-4-5,63,46,36,33,28,22,76,53,22,30.07,29.63,16,2,16,0.00
2013-4-6,48,38,29,26,14,6,69,40,18,30.35,29.89,22,3,22,0.00
2013-4-7,57,42,26,40,29,20,88,64,30,30.35,30.01,22,2,22,0.00
2013-4-8,68,53,39,44,40,34,88,65,30,30.09,29.96,11,1,12,0.00
2013-4-9,72,56,46,54,45,40,88,68,41,30.09,29.86,21,2,25,0.12
2013-4-10,66,53,46,52,46,42,88,79,57,30.03,29.86,10,1,11,0.22
2013-4-11,55,48,42,47,40,28,89,75,48,30.16,29.83,9,1,9,0.05
2013-4-12,42,39,38,37,35,32,89,86,70,30.18,29.80,21,3,21,0.50
2013-4-13,53,44,36,42,37,33,89,77,53,29.95,29.77,11,1,11,0.06
2013-4-14,52,45,34,41,34,28,88,67,41,30.23,29.92,17,2,18,0.00
2013-4-15,60,45,30,41,34,27,89,67,37,30.41,30.23,15,1,16,0.00
2013-4-16,67,53,37,51,43,34,88,72,50,30.42,30.07,15,2,16,0.00
2013-4-17,69,59,46,52,39,30,84,51,24,30.35,30.07,13,2,13,0.00
2013-4-18,66,51,36,45,36,29,88,60,33,30.43,30.16,15,2,17,0.00
2013-4-19,76,63,52,62,57,45,87,80,60,30.16,29.65,20,3,24,0.00
2013-4-20,67,54,44,62,42,24,88,65,36,30.24,29.60,18,3,20,0.64
2013-4-21,56,44,32,31,25,20,78,49,25,30.69,30.24,18,2,20,0.00
2013-4-22,52,42,31,37,32,27,89,69,41,30.77,30.60,23,4,23,0.00
2013-4-23,43,41,39,40,37,32,89,85,74,30.60,30.14,11,2,13,0.02
2013-4-24,77,56,42,54,45,38,89,69,27,30.14,29.79,15,2,17,0.01
2013-4-25,66,55,41,52,38,25,87,57,24,30.28,29.83,20,2,20,0.03
2013-4-26,61,48,34,44,37,31,89,68,43,30.44,30.28,15,2,16,0.00
2013-4-27,66,52,36,44,38,33,89,64,34,30.43,30.29,10,1,10,0.00
2013-4-28,72,55,37,45,38,31,88,57,27,30.35,30.21,14,1,15,0.00
2013-4-29,71,58,45,50,40,29,88,55,28,30.28,30.19,11,1,11,0.00
2013-4-30,71,57,42,41,34,22,84,47,20,30.37,30.26,13,1,13,0.00
2013-5-1,71,54,36,44,38,32,89,58,28,30.48,30.37,14,1,14,0.00
2013-5-2,79,56,40,51,42,37,88,65,25,30.50,30.34,18,2,20,0.00
2013-5-3,62,50,39,48,42,36,88,73,55,30.53,30.39,16,2,17,0.00
2013-5-4,62,49,37,49,40,34,89,73,44,30.39,30.31,16,2,16,0.00
2013-5-5,62,48,33,46,39,30,89,73,50,30.35,30.26,11,2,13,0.00
2013-5-6,74,52,35,54,44,32,89,75,40,30.31,30.15,11,1,12,0.00
2013-5-7,80,63,42,60,52,38,89,70,44,30.19,30.08,9,1,10,0.00
2013-5-8,72,63,52,64,57,48,88,82,67,30.20,30.05,13,2,15,0.13
2013-5-9,68,61,57,62,57,53,88,86,75,30.05,29.89,7,0,8,0.50
2013-5-10,82,67,53,63,56,50,88,71,42,29.97,29.89,12,0,12,0.00
2013-5-11,71,64,59,62,58,54,87,82,71,29.92,29.70,15,1,17,0.05
2013-5-12,73,62,48,59,52,34,88,73,43,29.83,29.57,14,1,18,0.17
2013-5-13,60,50,39,38,34,29,84,56,33,30.04,29.83,18,1,18,0.00
2013-5-14,61,49,36,39,34,30,88,60,31,30.07,29.98,13,1,15,0.00
2013-5-15,68,52,35,52,41,32,89,71,34,30.07,29.68,11,1,15,0.01
2013-5-16,82,65,47,54,44,36,88,52,22,29.81,29.64,18,2,20,0.00
2013-5-17,72,59,48,49,44,39,85,58,33,30.23,29.81,11,1,14,0.00
2013-5-18,73,59,42,51,45,38,88,63,31,30.32,30.22,13,1,16,0.00
2013-5-19,72,58,47,56,50,43,88,78,51,30.35,30.22,9,0,9,0.04
2013-5-20,83,68,56,68,60,52,88,77,56,30.22,29.91,9,0,10,0.02
2013-5-21,85,64,52,72,58,48,88,81,60,30.02,29.84,14,1,14,0.06
2013-5-22,70,58,51,64,53,47,88,85,77,30.07,29.89,11,1,12,0.08
2013-5-23,76,65,55,68,60,51,87,83,76,29.94,29.80,14,1,15,0.01
2013-5-24,73,64,49,67,59,46,88,85,76,29.83,29.66,8,0,8,0.03
2013-5-25,52,48,42,49,44,39,89,88,87,29.82,29.72,14,1,15,0.00
2013-5-26,60,49,40,45,40,37,89,74,50,30.12,29.73,19,2,28,0.05
2013-5-27,75,57,39,48,41,36,88,62,27,30.18,30.08,12,1,13,0.00
2013-5-28,77,60,42,56,48,38,88,68,30,30.25,30.16,10,1,10,0.00
2013-5-29,71,63,58,66,59,52,87,85,80,30.19,29.99,6,0,7,0.01
2013-5-30,89,74,61,72,65,56,87,75,52,30.09,30.00,14,1,14,0.00
2013-5-31,95,79,62,73,66,58,86,67,38,30.09,29.93,9,0,10,0.00
2013-6-1,93,79,64,73,67,60,86,67,44,29.97,29.85,9,1,12,0.00
2013-6-2,89,78,69,71,67,64,85,70,45,29.88,29.71,19,1,19,0.00
2013-6-3,80,70,60,69,63,47,87,80,64,29.85,29.75,7,0,7,0.01
2013-6-4,74,61,46,53,48,42,88,64,40,30.10,29.83,13,1,13,0.00
2013-6-5,77,62,48,59,50,44,88,65,37,30.20,30.09,7,0,8,0.00
2013-6-6,74,64,52,58,52,48,87,68,48,30.19,30.10,11,0,13,0.00
2013-6-7,59,56,54,55,53,50,88,87,85,30.12,29.81,10,1,10,1.07
2013-6-8,79,63,54,68,57,50,88,81,61,30.01,29.63,12,1,12,0.05
2013-6-9,81,67,54,65,56,50,87,70,43,30.17,30.01,9,1,11,0.00
2013-6-10,71,62,55,62,56,50,87,82,66,30.21,30.02,9,1,9,0.60
2013-6-11,64,59,57,59,55,52,87,85,83,30.02,29.57,11,1,14,0.92
2013-6-12,72,63,57,58,55,52,87,75,56,29.82,29.57,19,2,19,0.01
2013-6-13,66,57,51,60,52,47,86,84,74,29.82,29.68,10,0,11,0.74
2013-6-14,76,60,52,64,54,48,87,80,54,29.77,29.64,9,0,10,1.05
2013-6-15,81,66,52,56,51,45,87,63,30,29.95,29.77,9,1,10,0.00
2013-6-16,75,65,51,63,56,47,87,73,47,29.95,29.71,8,0,8,0.00
2013-6-17,86,70,58,68,60,54,86,73,43,29.91,29.77,20,1,23,0.12
2013-6-18,76,64,59,68,58,54,86,83,69,29.95,29.88,8,0,10,0.26
2013-6-19,77,65,56,60,54,50,86,71,39,30.15,29.91,7,0,7,0.07
2013-6-20,82,66,51,60,53,46,86,66,37,30.27,30.15,10,0,10,0.00
2013-6-21,86,72,58,68,61,53,85,69,45,30.25,30.18,7,0,8,0.00
2013-6-22,86,73,60,68,61,56,85,68,45,30.22,30.10,11,0,11,0.00
2013-6-23,91,77,65,75,66,58,80,71,55,30.16,29.99,9,1,10,0.00
2013-6-24,93,80,69,78,70,64,85,73,51,30.03,29.86,12,1,14,0.01
2013-6-25,92,79,68,74,68,63,85,71,49,29.92,29.72,11,1,12,0.00
2013-6-26,86,76,69,73,68,64,85,78,60,29.85,29.72,11,0,11,0.00
2013-6-27,74,68,64,68,63,60,86,84,80,29.86,29.75,8,1,8,0.04
2013-6-28,83,72,62,74,66,57,87,81,68,29.76,29.48,11,1,15,0.04
2013-6-29,85,76,71,72,68,65,85,77,62,29.72,29.50,12,1,12,0.00
2013-6-30,85,77,70,74,70,65,85,78,67,29.93,29.72,8,0,11,0.00
2013-7-1,82,76,72,76,70,66,85,83,77,30.07,29.93,7,0,9,0.00
2013-7-2,86,76,66,75,70,61,85,81,68,30.20,30.06,10,1,11,0.00
2013-7-3,89,76,64,76,68,59,86,78,60,30.20,30.12,9,1,11,0.00
2013-7-4,94,83,71,78,73,66,85,73,55,30.20,30.09,11,1,11,0.00
2013-7-5,95,84,74,78,74,68,84,72,53,30.16,30.03,7,0,8,0.00
2013-7-6,91,82,72,78,72,67,84,74,53,30.07,29.97,13,0,13,0.00
2013-7-7,92,78,68,79,70,63,85,79,58,30.02,29.89,6,0,10,0.00
2013-7-8,88,77,69,78,70,64,84,80,67,30.06,29.90,9,1,11,0.00
2013-7-9,74,70,66,69,64,60,85,84,82,30.10,30.04,6,0,6,0.00
2013-7-10,86,75,68,76,68,62,85,81,71,30.06,29.79,7,0,11,0.00
2013-7-11,82,75,70,75,70,64,85,82,76,29.92,29.77,4,0,6,0.00
2013-7-12,76,70,65,67,62,59,86,77,66,30.19,29.92,13,1,13,0.00
2013-7-13,78,71,65,71,65,60,85,83,78,30.30,30.19,7,0,8,0.00
2013-7-14,90,78,69,77,70,64,84,78,59,30.30,30.19,8,0,10,0.00
2013-7-15,92,80,69,80,71,63,84,76,56,30.20,30.09,5,0,6,0.00
2013-7-16,93,80,67,77,69,61,84,71,47,30.16,30.09,7,0,9,0.00
2013-7-17,96,82,69,77,71,63,84,71,45,30.17,29.99,6,0,6,0.00
2013-7-18,92,83,74,78,73,68,84,74,55,30.00,29.92,9,1,10,0.00
2013-7-19,97,85,72,79,74,66,84,71,49,29.94,29.71,11,1,14,0.00
2013-7-20,93,83,72,79,74,66,84,75,54,29.81,29.64,10,0,14,0.00
2013-7-21,85,75,68,71,66,61,85,75,58,29.98,29.80,8,1,9,0.00
2013-7-22,83,72,64,72,65,59,85,79,64,30.01,29.87,9,1,11,0.00
2013-7-23,82,73,70,76,68,65,85,82,78,29.88,29.53,11,0,11,0.00
2013-7-24,85,76,66,73,67,55,84,74,56,29.95,29.57,9,0,10,0.00
2013-7-25,66,61,59,57,54,50,85,79,70,30.10,29.95,8,0,8,0.00
2013-7-26,72,65,59,67,60,54,85,83,82,30.06,29.94,9,0,9,0.00
2013-7-27,85,71,58,70,62,53,84,74,52,30.06,29.98,6,0,7,0.00
2013-7-28,85,73,65,74,66,59,84,79,62,30.02,29.94,8,1,9,0.00
2013-7-29,85,74,67,75,67,61,84,78,65,30.03,29.95,15,0,15,0.00
2013-7-30,84,70,59,66,60,54,85,72,44,30.09,30.02,8,0,9,0.00
2013-7-31,85,71,59,68,61,54,85,72,41,30.14,30.03,6,0,7,0.00
2013-8-1,81,70,61,69,62,56,84,76,57,30.04,29.87,9,0,9,0.00
2013-8-2,84,72,65,70,63,59,84,76,52,29.88,29.78,8,0,9,0.00
2013-8-3,80,70,63,68,62,58,85,77,57,29.86,29.78,8,0,10,0.00
2013-8-4,81,68,57,64,58,52,85,74,45,29.90,29.76,7,0,9,0.00
2013-8-5,78,64,52,55,51,44,85,66,31,30.06,29.89,11,1,12,0.00
2013-8-6,80,64,49,63,54,44,86,71,44,30.15,30.05,7,0,8,0.00
2013-8-7,82,68,54,64,56,49,85,69,37,30.19,30.11,8,0,8,0.00
2013-8-8,82,72,65,72,66,58,84,80,69,30.13,30.00,6,0,8,0.00
2013-8-9,76,73,71,69,68,65,84,82,81,30.02,29.75,9,0,9,0.00
2013-8-10,84,72,59,68,62,54,85,72,45,30.01,29.79,12,1,13,0.00
2013-8-11,81,66,53,64,56,48,86,71,44,30.09,30.00,10,0,10,0.00
2013-8-12,84,70,59,68,59,54,85,71,45,30.03,29.92,7,0,8,0.00
2013-8-13,77,68,63,68,62,58,85,82,66,29.92,29.68,6,0,6,0.00
2013-8-14,76,66,57,60,56,52,85,71,50,29.97,29.67,15,1,17,0.00
2013-8-15,79,64,51,63,54,47,86,71,43,30.12,29.97,9,0,11,0.00
2013-8-16,81,66,52,64,56,48,85,72,43,30.20,30.11,9,0,10,0.00
2013-8-17,82,67,53,67,58,49,85,74,52,30.28,30.20,7,0,7,0.00
2013-8-18,80,68,58,68,61,53,85,79,59,30.28,30.09,5,0,7,0.00
2013-8-19,81,69,57,69,61,52,85,76,54,30.09,29.95,8,0,8,0.00
2013-8-20,87,73,60,70,63,55,85,73,42,30.09,29.98,6,0,6,0.00
2013-8-21,90,73,59,71,63,54,84,73,46,30.14,30.02,6,0,6,0.00
2013-8-22,86,75,64,74,67,58,84,77,60,30.04,29.83,9,0,9,0.00
2013-8-23,80,71,58,66,62,53,85,73,46,30.13,29.82,14,0,14,0.00
2013-8-24,80,64,50,56,52,46,86,68,32,30.34,30.13,8,0,9,0.00
2013-8-25,85,66,49,66,54,44,85,68,33,30.37,30.19,7,0,8,0.00
2013-8-26,81,71,64,69,63,57,84,77,62,30.19,29.87,8,0,9,0.00
2013-8-27,85,73,65,73,66,60,84,79,63,29.90,29.83,8,0,9,0.00
2013-8-28,87,72,60,72,64,55,84,77,56,29.98,29.85,9,0,9,0.00
2013-8-29,67,65,60,62,60,56,86,84,83,30.08,29.95,10,1,10,0.00
2013-8-30,86,70,60,72,63,56,85,79,57,30.04,29.83,7,0,8,0.00
2013-8-31,82,74,68,74,68,62,84,81,75,29.84,29.78,6,0,9,0.00
2013-9-1,79,73,69,73,67,63,83,81,80,29.88,29.80,10,0,10,0.37
2013-9-2,81,74,71,75,68,65,84,82,80,29.87,29.71,8,0,8,0.05
2013-9-3,81,73,61,73,66,56,86,81,68,29.82,29.69,7,0,10,0.00
2013-9-4,82,67,56,64,58,51,86,73,43,29.93,29.81,10,0,11,0.00
2013-9-5,71,62,49,61,54,44,86,77,46,30.16,29.86,7,0,8,0.05
2013-9-6,72,55,42,53,45,38,86,70,38,30.26,30.10,7,0,7,0.00
2013-9-7,81,63,48,60,52,43,86,70,36,30.11,29.86,8,0,8,0.00
2013-9-8,76,64,48,64,54,43,85,71,39,30.10,29.75,13,1,15,0.00
2013-9-9,72,56,41,53,46,36,86,70,41,30.25,30.10,8,0,11,0.00
2013-9-10,76,66,54,69,61,50,85,83,81,30.17,30.04,8,0,12,0.07
2013-9-11,96,80,67,79,70,61,84,73,48,30.07,29.93,10,0,11,0.00
2013-9-12,87,77,68,76,69,62,84,77,60,29.96,29.68,12,1,14,0.91
2013-9-13,78,69,59,70,63,54,85,81,69,29.76,29.56,6,0,10,0.05
2013-9-14,68,60,51,58,53,47,86,79,63,30.07,29.76,6,0,11,0.00
2013-9-15,73,58,46,57,49,41,86,75,47,30.17,30.06,7,0,7,0.02
2013-9-16,68,57,48,58,50,40,85,78,64,30.26,30.03,9,0,11,0.00
2013-9-17,64,50,38,48,41,34,87,73,45,30.43,30.26,9,0,10,0.00
2013-9-18,76,53,38,54,44,34,86,74,37,30.34,30.15,5,0,6,0.00
2013-9-19,81,61,45,61,51,40,85,73,42,30.15,30.04,5,0,6,0.00
2013-9-20,82,62,46,62,52,42,85,73,39,30.10,29.99,6,0,6,0.00
2013-9-21,77,65,52,65,58,47,85,79,61,30.04,29.73,12,1,12,0.00
2013-9-22,70,64,50,66,57,46,85,77,54,29.84,29.60,13,1,15,0.55
2013-9-23,65,52,43,49,44,39,86,74,52,30.02,29.84,12,1,15,0.00
2013-9-24,68,53,41,50,43,36,86,71,43,30.01,29.82,10,0,11,0.00
2013-9-25,71,54,42,56,47,37,85,77,53,29.99,29.88,8,0,10,0.00
2013-9-26,68,57,51,53,50,47,86,77,55,30.14,29.99,8,0,8,0.00
2013-9-27,65,57,48,57,51,43,85,81,70,30.27,30.14,7,0,7,0.00
2013-9-28,75,56,43,60,48,38,85,77,53,30.34,30.27,10,0,10,0.00
2013-9-29,71,53,45,56,46,40,85,77,45,30.28,30.14,5,0,7,0.00
2013-9-30,70,55,46,55,48,42,85,77,51,30.14,29.97,6,0,7,0.01
2013-10-1,77,58,42,59,49,37,85,74,44,29.98,29.85,7,0,7,0.00
2013-10-2,80,63,50,65,55,44,85,76,55,29.96,29.84,10,0,13,0.00
2013-10-3,77,60,48,58,50,43,85,72,39,30.10,29.96,5,0,6,0.00
2013-10-4,65,56,48,59,51,43,85,83,78,30.10,30.04,2,0,3,0.11
2013-10-5,70,62,56,62,56,50,85,80,71,30.13,30.06,5,0,5,0.00
2013-10-6,61,57,55,56,52,50,84,82,81,30.24,30.12,8,0,8,0.25
2013-10-7,77,65,57,69,60,51,85,82,76,30.14,29.81,15,1,16,0.04
2013-10-8,67,55,42,55,47,38,86,75,47,30.39,29.91,9,0,11,0.01
2013-10-9,64,49,38,51,42,33,86,78,55,30.49,30.38,9,1,11,0.02
2013-10-10,63,50,38,55,45,34,86,82,71,30.38,30.19,8,0,8,0.00
2013-10-11,72,56,47,59,48,41,86,75,39,30.19,30.10,9,0,10,0.00
2013-10-12,60,52,42,55,48,38,86,84,81,30.40,30.16,9,0,9,0.00
2013-10-13,60,51,38,52,45,34,86,81,70,30.45,30.38,11,1,11,0.00
2013-10-14,65,48,33,50,40,29,86,77,46,30.42,30.26,7,0,7,0.00
2013-10-15,68,56,46,56,49,41,85,79,63,30.28,30.18,10,0,10,0.00
2013-10-16,62,54,46,55,49,42,85,82,75,30.19,29.92,5,0,5,0.00
2013-10-17,74,60,49,62,54,44,85,79,65,29.93,29.73,9,0,9,0.00
2013-10-18,68,59,43,56,50,39,86,73,49,29.92,29.62,14,1,18,0.01
2013-10-19,68,53,38,49,43,34,85,70,41,29.98,29.75,8,0,8,0.00
2013-10-20,62,51,37,49,41,33,86,69,39,30.03,29.70,14,1,17,0.01
2013-10-21,67,50,35,47,39,31,86,70,41,30.12,30.00,8,0,9,0.00
2013-10-22,67,51,39,54,44,34,85,77,55,30.00,29.71,11,0,11,0.00
2013-10-23,51,43,34,41,36,30,86,76,53,29.81,29.60,5,0,6,0.00
2013-10-24,53,43,33,38,32,26,86,66,39,29.90,29.65,16,1,16,0.00
2013-10-25,49,38,29,37,29,25,86,72,46,30.17,29.90,12,1,13,0.00
2013-10-26,55,42,27,38,30,23,86,67,35,30.18,29.89,17,1,17,0.00
2013-10-27,55,46,34,41,36,30,85,68,44,30.08,29.82,13,1,14,0.00
2013-10-28,59,43,30,38,32,26,86,67,42,30.37,30.08,15,1,16,0.00
2013-10-29,50,35,24,32,24,21,86,69,35,30.46,30.36,7,0,7,0.00
2013-10-30,53,38,27,43,33,23,86,82,65,30.39,30.20,8,0,9,0.00
2013-10-31,62,47,30,57,42,25,85,83,80,30.26,29.80,8,0,10,0.02
2013-11-1,71,64,56,63,57,51,84,80,72,29.80,29.49,20,3,24,0.04
2013-11-2,67,54,44,51,44,38,85,71,40,29.74,29.59,8,0,10,0.00
2013-11-3,50,41,30,45,30,17,85,66,38,30.44,29.73,8,0,9,0.00
2013-11-4,44,31,22,22,19,16,86,65,34,30.73,30.46,10,0,11,0.00
2013-11-5,50,36,22,34,27,18,87,72,46,30.75,30.53,8,0,8,0.00
2013-11-6,61,50,37,49,41,33,86,74,53,30.53,30.05,11,1,11,0.00
2013-11-7,66,54,37,58,48,32,86,82,71,30.05,29.68,15,1,15,0.14
2013-11-8,48,38,28,36,29,23,87,71,49,30.11,29.83,18,2,18,0.00
2013-11-9,45,36,27,31,26,22,85,67,41,30.24,30.04,19,1,19,0.00
2013-11-10,57,45,38,44,36,30,85,73,53,30.04,29.74,17,1,23,0.04
2013-11-11,51,45,38,35,30,26,70,58,39,30.12,29.88,17,1,19,0.00
2013-11-12,48,36,24,39,27,17,86,71,55,30.21,29.90,15,1,23,0.09
2013-11-13,36,27,22,20,17,12,83,65,40,30.31,30.18,15,1,15,0.00
2013-11-14,50,36,27,28,23,18,81,59,36,30.18,30.05,17,1,17,0.00
2013-11-15,61,43,27,34,25,17,81,54,20,30.22,30.11,9,0,11,0.00
2013-11-16,60,43,30,37,30,24,84,64,26,30.33,30.20,5,0,6,0.00
2013-11-17,54,42,29,45,36,25,86,80,66,30.33,29.85,2,0,4,0.02
2013-11-18,65,56,44,57,46,34,84,69,48,29.85,29.54,14,1,16,0.18
2013-11-19,48,40,31,34,24,17,68,53,41,30.30,29.67,21,3,24,0.00
2013-11-20,42,31,20,18,16,13,82,56,32,30.66,30.30,16,1,16,0.00
2013-11-21,48,32,17,29,21,14,87,68,36,30.67,30.39,8,0,10,0.00
2013-11-22,47,43,36,42,38,29,85,83,76,30.39,29.83,3,0,3,0.10
2013-11-23,46,40,30,42,28,16,86,63,40,29.93,29.80,18,3,21,0.00
2013-11-24,30,24,20,21,6,-4,81,47,27,30.23,29.81,28,6,29,0.00
2013-11-25,33,24,15,19,6,-5,64,46,22,30.39,30.23,17,2,24,0.00
2013-11-26,41,36,30,32,24,18,85,63,47,30.35,30.05,9,0,11,0.02
2013-11-27,62,50,36,56,45,32,87,84,81,30.04,29.22,20,3,21,0.94
2013-11-28,38,30,21,33,18,10,84,62,40,30.46,29.48,22,3,29,0.00
2013-11-29,34,26,18,19,14,5,85,62,40,30.77,30.46,14,1,14,0.01
2013-11-30,33,23,12,24,16,8,88,74,54,30.83,30.45,7,0,7,0.00
2013-12-1,36,33,29,32,29,23,87,84,78,30.45,30.03,3,0,4,0.08
2013-12-2,39,37,36,35,33,32,85,84,84,30.04,29.93,3,0,5,0.01
2013-12-3,49,38,29,40,32,26,88,82,61,29.97,29.86,7,0,9,0.00
2013-12-4,44,33,26,33,27,22,87,79,57,30.22,29.97,8,0,9,0.00
2013-12-5,46,38,28,41,34,25,87,86,83,30.23,29.93,5,0,6,0.01
2013-12-6,56,48,34,51,44,31,88,84,74,30.16,29.87,9,0,9,0.16
2013-12-7,40,33,24,33,27,21,88,80,59,30.48,30.09,14,1,17,0.13
2013-12-8,32,27,20,24,20,16,88,75,57,30.62,30.47,8,0,8,0.13
2013-12-9,35,31,26,31,27,18,88,84,65,30.52,29.91,6,0,6,0.05
2013-12-10,33,30,22,30,26,18,89,85,74,30.01,29.80,13,1,16,0.01
2013-12-11,32,23,17,22,18,14,89,80,60,30.23,30.01,12,1,14,0.00
2013-12-12,25,18,10,18,9,3,88,69,40,30.30,30.09,18,1,24,0.00
2013-12-13,30,21,12,18,12,5,85,71,54,30.42,30.03,19,1,19,0.00
2013-12-14,21,15,11,18,6,-1,88,69,51,30.64,30.16,6,0,7,0.00
2013-12-15,34,27,20,30,23,17,88,87,84,30.16,29.46,18,2,18,0.00
2013-12-16,28,21,9,20,14,6,88,73,49,30.23,29.77,16,2,17,0.00
2013-12-17,19,10,-3,16,7,-6,88,85,73,30.32,29.97,7,0,8,0.00
2013-12-18,34,24,15,24,18,12,88,81,60,30.11,29.90,15,1,15,0.00
2013-12-19,43,31,18,29,24,15,88,77,51,30.14,29.98,12,1,13,0.09
2013-12-20,53,40,29,38,32,26,88,75,52,30.14,29.92,7,0,8,0.42
2013-12-21,58,47,39,48,41,35,86,80,67,29.98,29.87,8,0,9,0.00
2013-12-22,52,42,35,48,38,31,87,84,82,30.05,29.80,12,0,12,0.00
2013-12-23,36,34,33,32,30,29,85,85,84,30.11,29.97,5,0,5,0.36
2013-12-24,37,32,26,32,24,17,89,72,51,30.22,30.06,12,1,16,0.00
2013-12-25,26,19,14,19,8,3,80,61,44,30.57,30.22,14,1,15,0.00
2013-12-26,31,23,14,26,19,9,88,85,80,30.53,30.11,6,0,8,0.00
2013-12-27,34,25,17,23,19,14,89,78,59,30.31,30.22,10,1,13,0.01
2013-12-28,46,32,23,30,25,19,88,76,50,30.24,30.01,14,1,14,0.01
2013-12-29,41,34,26,36,30,23,88,85,73,30.06,29.43,12,0,15,0.19
2013-12-30,41,32,19,35,22,10,87,69,40,30.19,29.55,24,2,24,0.00
2013-12-31,26,19,14,16,8,-1,84,64,48,30.21,30.04,8,1,10,0.00
2014-1-1,28,20,14,16,11,7,83,66,47,30.41,30.21,15,1,18,0.00
2014-1-2,21,13,2,17,9,-2,86,84,77,30.38,29.88,12,2,16,0.00